Time,TemperatureF,DewpointF,PressureIn,WindDirection,WindDirectionDegrees,WindSpeedMPH,WindSpeedGustMPH,Humidity,HourlyPrecipIn,Conditions,Clouds,dailyrainin,SoftwareType,DateUTC
2013-02-28 00:00:00,45.5,25.4,30.21,NNE,13,1.1,1.1,45,0.00,CLR,,0.00,WeatherDisplay:10.37,2013-02-28 06:00:00,
2013-02-28 00:05:00,45.2,24.6,30.22,NE,34,3.5,3.5,44,0.00,CLR,,0.00,WeatherDisplay:10.37,2013-02-28 06:05:00,
2013-02-28 00:10:00,45.0,24.4,30.21,NNW,346,2.3,2.3,44,0.00,CLR,,0.00,WeatherDisplay:10.37,2013-02-28 06:10:00,
2013-02-28 00:15:00,44.8,24.7,30.22,NNW,343,4.0,4.0,45,0.00,CLR,,0.00,WeatherDisplay:10.37,2013-02-28 06:15:00,
2013-02-28 00:20:00,44.8,24.7,30.21,NNE,17,5.0,5.0,45,0.00,CLR,,0.00,WeatherDisplay:10.37,2013-02-28 06:20:00,
2013-02-28 00:25:00,44.8,24.7,30.21,NNE,20,1.1,1.1,45,0.00,CLR,,0.00,WeatherDisplay:10.37,2013-02-28 06:25:00,
2013-02-28 00:30:00,44.8,25.3,30.22,NNE,19,2.3,2.3,46,0.00,CLR,,0.00,WeatherDisplay:10.37,2013-02-28 06:30:00,
2013-02-28 00:35:00,44.8,24.7,30.21,NNE,15,2.3,2.3,45,0.00,CLR,,0.00,WeatherDisplay:10.37,2013-02-28 06:35:00,
2013-02-28 00:40:00,44.6,24.5,30.22,NNE,26,3.5,3.5,45,0.00,CLR,,0.00,WeatherDisplay:10.37,2013-02-28 06:40:00,
2013-02-28 00:45:00,44.3,24.3,30.21,North,5,3.5,3.5,45,0.00,CLR,,0.00,WeatherDisplay:10.37,2013-02-28 06:45:00,
2013-02-28 00:50:00,44.0,24.5,30.21,NNE,16,2.3,2.3,46,0.00,CLR,,0.00,WeatherDisplay:10.37,2013-02-28 06:50:00,
2013-02-28 00:55:00,43.9,24.4,30.20,NNW,348,3.5,3.5,46,0.00,CLR,,0.00,WeatherDisplay:10.37,2013-02-28 06:55:00,
2013-02-28 01:00:00,43.8,24.3,30.21,NNE,19,4.6,4.6,46,0.00,CLR,,0.00,WeatherDisplay:10.37,2013-02-28 07:00:00,
2013-02-28 01:05:00,43.8,24.3,30.21,North,5,2.3,2.3,46,0.00,CLR,,0.00,WeatherDisplay:10.37,2013-02-28 07:05:00,
2013-02-28 01:10:00,43.9,24.4,30.21,NNE,14,3.5,3.5,46,0.00,CLR,,0.00,WeatherDisplay:10.37,2013-02-28 07:10:00,
2013-02-28 01:15:00,43.9,24.4,30.21,NNE,18,1.1,1.1,46,0.00,CLR,,0.00,WeatherDisplay:10.37,2013-02-28 07:15:00,
2013-02-28 01:20:00,44.0,24.5,30.20,NNE,30,3.5,3.5,46,0.00,CLR,,0.00,WeatherDisplay:10.37,2013-02-28 07:20:00,
2013-02-28 01:25:00,43.9,24.4,30.21,NE,41,3.5,3.5,46,0.00,CLR,,0.00,WeatherDisplay:10.37,2013-02-28 07:25:00,
2013-02-28 01:30:00,43.9,24.4,30.21,NE,34,2.3,2.3,46,0.00,CLR,,0.00,WeatherDisplay:10.37,2013-02-28 07:30:00,
2013-02-28 01:35:00,43.8,24.9,30.21,ENE,57,3.5,3.5,47,0.00,CLR,,0.00,WeatherDisplay:10.37,2013-02-28 07:35:00,
2013-02-28 01:40:00,43.7,24.8,30.21,NE,36,2.3,2.3,47,0.00,CLR,,0.00,WeatherDisplay:10.37,2013-02-28 07:40:00,
2013-02-28 01:45:00,43.7,24.8,30.21,ENE,62,3.5,3.5,47,0.00,CLR,,0.00,WeatherDisplay:10.37,2013-02-28 07:45:00,
2013-02-28 01:50:00,43.6,24.2,30.22,NNW,345,2.3,2.3,46,0.00,CLR,,0.00,WeatherDisplay:10.37,2013-02-28 07:50:00,
2013-02-28 01:55:00,43.6,24.2,30.22,North,9,2.3,2.3,46,0.00,CLR,,0.00,WeatherDisplay:10.37,2013-02-28 07:55:00,
2013-02-28 02:00:00,43.7,24.2,30.22,NNE,13,2.3,2.3,46,0.00,CLR,,0.00,WeatherDisplay:10.37,2013-02-28 08:00:00,
2013-02-28 02:05:00,44.0,24.5,30.22,NNE,15,2.3,2.3,46,0.00,CLR,,0.00,WeatherDisplay:10.37,2013-02-28 08:05:00,
2013-02-28 02:10:00,44.3,25.3,30.22,North,5,8.1,8.1,47,0.00,CLR,,0.00,WeatherDisplay:10.37,2013-02-28 08:10:00,
2013-02-28 02:15:00,44.6,25.1,30.22,NNE,26,3.5,3.5,46,0.00,CLR,,0.00,WeatherDisplay:10.37,2013-02-28 08:15:00,
2013-02-28 02:20:00,44.8,25.8,30.22,NNE,24,4.6,4.6,47,0.00,CLR,,0.00,WeatherDisplay:10.37,2013-02-28 08:20:00,
2013-02-28 02:25:00,45.1,26.1,30.22,NE,34,3.5,3.5,47,0.00,CLR,,0.00,WeatherDisplay:10.37,2013-02-28 08:25:00,
2013-02-28 02:30:00,45.2,26.1,30.21,NNE,22,3.5,3.5,47,0.00,CLR,,0.00,WeatherDisplay:10.37,2013-02-28 08:30:00,
2013-02-28 02:35:00,45.3,26.2,30.21,NNE,17,2.3,2.3,47,0.00,CLR,,0.00,WeatherDisplay:10.37,2013-02-28 08:35:00,
2013-02-28 02:40:00,45.3,26.2,30.21,NNE,22,3.5,3.5,47,0.00,CLR,,0.00,WeatherDisplay:10.37,2013-02-28 08:40:00,
2013-02-28 02:45:00,45.3,26.2,30.21,NE,34,3.0,3.0,47,0.00,CLR,,0.00,WeatherDisplay:10.37,2013-02-28 08:45:00,
2013-02-28 02:50:00,45.2,26.7,30.21,North,5,3.5,3.5,48,0.00,CLR,,0.00,WeatherDisplay:10.37,2013-02-28 08:50:00,
2013-02-28 02:55:00,45.2,26.7,30.21,North,355,2.3,2.3,48,0.00,CLR,,0.00,WeatherDisplay:10.37,2013-02-28 08:55:00,
2013-02-28 03:00:00,45.1,26.6,30.21,NE,36,3.5,3.5,48,0.00,CLR,,0.00,WeatherDisplay:10.37,2013-02-28 09:00:00,
2013-02-28 03:05:00,45.1,27.1,30.21,North,360,3.5,3.5,49,0.00,CLR,,0.00,WeatherDisplay:10.37,2013-02-28 09:05:00,
2013-02-28 03:10:00,45.0,27.0,30.21,NNE,23,4.6,4.6,49,0.00,CLR,,0.00,WeatherDisplay:10.37,2013-02-28 09:10:00,
2013-02-28 03:15:00,45.1,27.6,30.21,NNE,22,5.0,5.0,50,0.00,CLR,,0.00,WeatherDisplay:10.37,2013-02-28 09:15:00,
2013-02-28 03:20:00,45.1,27.6,30.21,NNE,13,4.6,4.6,50,0.00,CLR,,0.00,WeatherDisplay:10.37,2013-02-28 09:20:00,
2013-02-28 03:25:00,45.2,27.6,30.21,NNW,328,2.0,2.0,50,0.00,CLR,,0.00,WeatherDisplay:10.37,2013-02-28 09:25:00,
2013-02-28 03:30:00,45.3,28.2,30.21,NE,36,4.0,4.0,51,0.00,CLR,,0.00,WeatherDisplay:10.37,2013-02-28 09:30:00,
2013-02-28 03:35:00,45.4,27.8,30.21,NNW,342,2.3,2.3,50,0.00,CLR,,0.00,WeatherDisplay:10.37,2013-02-28 09:35:00,
2013-02-28 03:40:00,45.5,28.4,30.21,NNE,33,3.5,3.5,51,0.00,CLR,,0.00,WeatherDisplay:10.37,2013-02-28 09:40:00,
2013-02-28 03:45:00,45.5,28.4,30.21,NNE,15,3.5,3.5,51,0.00,CLR,,0.00,WeatherDisplay:10.37,2013-02-28 09:45:00,
2013-02-28 03:50:00,45.5,28.4,30.22,NNE,28,4.6,4.6,51,0.00,CLR,,0.00,WeatherDisplay:10.37,2013-02-28 09:50:00,
2013-02-28 03:55:00,45.5,28.4,30.22,NNW,348,3.5,3.5,51,0.00,CLR,,0.00,WeatherDisplay:10.37,2013-02-28 09:55:00,
2013-02-28 04:00:00,45.5,28.9,30.22,NW,319,3.5,3.5,52,0.00,CLR,,0.00,WeatherDisplay:10.37,2013-02-28 10:00:00,
2013-02-28 04:05:00,45.5,28.9,30.22,NNE,13,2.3,2.3,52,0.00,CLR,,0.00,WeatherDisplay:10.37,2013-02-28 10:05:00,
2013-02-28 04:10:00,45.5,28.9,30.23,NE,48,2.3,2.3,52,0.00,CLR,,0.00,WeatherDisplay:10.37,2013-02-28 10:10:00,
2013-02-28 04:15:00,45.5,28.9,30.23,North,11,3.5,3.5,52,0.00,CLR,,0.00,WeatherDisplay:10.37,2013-02-28 10:15:00,
2013-02-28 04:20:00,45.5,29.3,30.23,NNE,21,1.1,1.1,53,0.00,CLR,,0.00,WeatherDisplay:10.37,2013-02-28 10:20:00,
2013-02-28 04:25:00,45.5,29.3,30.23,NNE,26,1.1,1.1,53,0.00,CLR,,0.00,WeatherDisplay:10.37,2013-02-28 10:25:00,
2013-02-28 04:30:00,45.4,29.3,30.24,North,5,0.0,0.0,53,0.00,CLR,,0.00,WeatherDisplay:10.37,2013-02-28 10:30:00,
2013-02-28 04:35:00,45.3,29.2,30.23,North,5,1.1,1.1,53,0.00,CLR,,0.00,WeatherDisplay:10.37,2013-02-28 10:35:00,
2013-02-28 04:40:00,45.2,29.5,30.23,NNE,13,2.3,2.3,54,0.00,CLR,,0.00,WeatherDisplay:10.37,2013-02-28 10:40:00,
2013-02-28 04:45:00,45.1,29.4,30.23,NNE,27,3.5,3.5,54,0.00,CLR,,0.00,WeatherDisplay:10.37,2013-02-28 10:45:00,
2013-02-28 04:50:00,45.0,29.3,30.23,NNE,23,3.5,3.5,54,0.00,CLR,,0.00,WeatherDisplay:10.37,2013-02-28 10:50:00,
2013-02-28 04:55:00,45.0,29.3,30.24,NNE,16,3.5,3.5,54,0.00,CLR,,0.00,WeatherDisplay:10.37,2013-02-28 10:55:00,
2013-02-28 05:00:00,45.0,29.3,30.24,North,11,3.5,3.5,54,0.00,CLR,,0.00,WeatherDisplay:10.37,2013-02-28 11:00:00,
2013-02-28 05:05:00,45.0,29.3,30.24,North,9,3.5,3.5,54,0.00,CLR,,0.00,WeatherDisplay:10.37,2013-02-28 11:05:00,
2013-02-28 05:10:00,45.0,29.3,30.24,NE,40,3.5,3.5,54,0.00,CLR,,0.00,WeatherDisplay:10.37,2013-02-28 11:10:00,
2013-02-28 05:15:00,44.9,28.8,30.24,NNE,19,3.5,3.5,53,0.00,CLR,,0.00,WeatherDisplay:10.37,2013-02-28 11:15:00,
2013-02-28 05:20:00,44.9,28.8,30.25,NNE,15,3.5,3.5,53,0.00,CLR,,0.00,WeatherDisplay:10.37,2013-02-28 11:20:00,
2013-02-28 05:25:00,44.8,29.2,30.25,NNE,15,1.1,1.1,54,0.00,CLR,,0.00,WeatherDisplay:10.37,2013-02-28 11:25:00,
2013-02-28 05:30:00,44.8,29.2,30.25,ENE,60,0.0,0.0,54,0.00,CLR,,0.00,WeatherDisplay:10.37,2013-02-28 11:30:00,
2013-02-28 05:35:00,44.7,29.1,30.25,ENE,66,0.0,0.0,54,0.00,CLR,,0.00,WeatherDisplay:10.37,2013-02-28 11:35:00,
2013-02-28 05:40:00,44.7,29.1,30.25,NE,55,1.1,1.1,54,0.00,CLR,,0.00,WeatherDisplay:10.37,2013-02-28 11:40:00,
2013-02-28 05:45:00,44.6,29.0,30.25,NNE,26,1.1,1.1,54,0.00,CLR,,0.00,WeatherDisplay:10.37,2013-02-28 11:45:00,
2013-02-28 05:50:00,44.5,28.9,30.26,NNE,17,2.3,2.3,54,0.00,CLR,,0.00,WeatherDisplay:10.37,2013-02-28 11:50:00,
2013-02-28 05:55:00,44.3,29.1,30.26,NE,54,2.3,2.3,55,0.00,CLR,,0.00,WeatherDisplay:10.37,2013-02-28 11:55:00,
2013-02-28 06:00:00,44.3,29.1,30.26,NE,35,2.3,2.3,55,0.00,CLR,,0.00,WeatherDisplay:10.37,2013-02-28 12:00:00,
2013-02-28 06:05:00,44.3,29.1,30.26,NE,51,3.5,3.5,55,0.00,CLR,,0.00,WeatherDisplay:10.37,2013-02-28 12:05:00,
2013-02-28 06:10:00,44.3,28.7,30.26,NE,47,3.5,3.5,54,0.00,CLR,,0.00,WeatherDisplay:10.37,2013-02-28 12:10:00,
2013-02-28 06:15:00,44.4,29.2,30.27,North,360,3.5,3.5,55,0.00,CLR,,0.00,WeatherDisplay:10.37,2013-02-28 12:15:00,
2013-02-28 06:20:00,44.4,28.8,30.27,North,5,3.5,3.5,54,0.00,CLR,,0.00,WeatherDisplay:10.37,2013-02-28 12:20:00,
2013-02-28 06:25:00,44.4,29.2,30.27,NNE,31,2.3,2.3,55,0.00,CLR,,0.00,WeatherDisplay:10.37,2013-02-28 12:25:00,
2013-02-28 06:30:00,44.5,28.9,30.27,NNW,344,2.3,2.3,54,0.00,CLR,,0.00,WeatherDisplay:10.37,2013-02-28 12:30:00,
2013-02-28 06:35:00,44.5,28.9,30.27,North,360,3.5,3.5,54,0.00,CLR,,0.00,WeatherDisplay:10.37,2013-02-28 12:35:00,
2013-02-28 06:40:00,44.4,28.8,30.27,NW,325,2.3,2.3,54,0.00,CLR,,0.00,WeatherDisplay:10.37,2013-02-28 12:40:00,
2013-02-28 06:45:00,44.4,28.8,30.27,NNE,27,4.6,4.6,54,0.00,CLR,,0.00,WeatherDisplay:10.37,2013-02-28 12:45:00,
2013-02-28 06:50:00,44.4,28.8,30.27,NNW,344,3.5,3.5,54,0.00,CLR,,0.00,WeatherDisplay:10.37,2013-02-28 12:50:00,
2013-02-28 06:55:00,44.4,28.8,30.28,North,355,5.0,5.0,54,0.00,CLR,,0.00,WeatherDisplay:10.37,2013-02-28 12:55:00,
2013-02-28 07:00:00,44.3,29.1,30.27,NNE,28,3.5,3.5,55,0.00,CLR,,0.00,WeatherDisplay:10.37,2013-02-28 13:00:00,
2013-02-28 07:05:00,44.3,29.1,30.28,East,94,3.5,3.5,55,0.00,CLR,,0.00,WeatherDisplay:10.37,2013-02-28 13:05:00,
2013-02-28 07:10:00,44.3,28.7,30.29,NNE,15,3.5,3.5,54,0.00,CLR,,0.00,WeatherDisplay:10.37,2013-02-28 13:10:00,
2013-02-28 07:15:00,44.3,29.1,30.29,NE,47,2.3,2.3,55,0.00,CLR,,0.00,WeatherDisplay:10.37,2013-02-28 13:15:00,
2013-02-28 07:20:00,44.2,29.0,30.29,NE,49,1.1,1.1,55,0.00,CLR,,0.00,WeatherDisplay:10.37,2013-02-28 13:20:00,
2013-02-28 07:25:00,44.2,29.0,30.29,NE,38,2.3,2.3,55,0.00,CLR,,0.00,WeatherDisplay:10.37,2013-02-28 13:25:00,
2013-02-28 07:30:00,44.2,29.0,30.29,NE,41,3.5,3.5,55,0.00,CLR,,0.00,WeatherDisplay:10.37,2013-02-28 13:30:00,
2013-02-28 07:35:00,44.2,29.0,30.29,North,355,1.1,1.1,55,0.00,CLR,,0.00,WeatherDisplay:10.37,2013-02-28 13:35:00,
2013-02-28 07:40:00,44.2,29.0,30.30,NNE,21,3.5,3.5,55,0.00,CLR,,0.00,WeatherDisplay:10.37,2013-02-28 13:40:00,
2013-02-28 07:45:00,44.3,29.6,30.30,NNE,24,1.1,1.1,56,0.00,CLR,,0.00,WeatherDisplay:10.37,2013-02-28 13:45:00,
2013-02-28 07:50:00,44.3,29.1,30.30,NNW,343,3.5,3.5,55,0.00,CLR,,0.00,WeatherDisplay:10.37,2013-02-28 13:50:00,
2013-02-28 07:55:00,44.4,29.2,30.31,NNW,346,3.5,3.5,55,0.00,CLR,,0.00,WeatherDisplay:10.37,2013-02-28 13:55:00,
2013-02-28 08:00:00,44.4,29.7,30.31,NNE,19,2.3,2.3,56,0.00,CLR,,0.00,WeatherDisplay:10.37,2013-02-28 14:00:00,
2013-02-28 08:05:00,44.5,29.3,30.31,NE,49,4.0,4.0,55,0.00,CLR,,0.00,WeatherDisplay:10.37,2013-02-28 14:05:00,
2013-02-28 08:10:00,44.6,29.4,30.30,NE,34,3.5,3.5,55,0.00,CLR,,0.00,WeatherDisplay:10.37,2013-02-28 14:10:00,
2013-02-28 08:15:00,44.7,29.5,30.31,NE,39,3.5,3.5,55,0.00,CLR,,0.00,WeatherDisplay:10.37,2013-02-28 14:15:00,
2013-02-28 08:20:00,44.8,29.6,30.31,NE,37,3.5,3.5,55,0.00,CLR,,0.00,WeatherDisplay:10.37,2013-02-28 14:20:00,
2013-02-28 08:25:00,45.0,29.3,30.31,North,11,4.6,4.6,54,0.00,CLR,,0.00,WeatherDisplay:10.37,2013-02-28 14:25:00,
2013-02-28 08:30:00,45.1,29.4,30.31,NNW,338,3.0,3.0,54,0.00,CLR,,0.00,WeatherDisplay:10.37,2013-02-28 14:30:00,
2013-02-28 08:35:00,45.2,29.1,30.31,North,5,4.6,4.6,53,0.00,CLR,,0.00,WeatherDisplay:10.37,2013-02-28 14:35:00,
2013-02-28 08:40:00,45.2,29.1,30.31,NNE,14,6.9,6.9,53,0.00,CLR,,0.00,WeatherDisplay:10.37,2013-02-28 14:40:00,
2013-02-28 08:45:00,45.3,29.6,30.31,NNE,33,4.6,4.6,54,0.00,CLR,,0.00,WeatherDisplay:10.37,2013-02-28 14:45:00,
2013-02-28 08:50:00,45.5,29.3,30.32,NE,44,3.5,3.5,53,0.00,CLR,,0.00,WeatherDisplay:10.37,2013-02-28 14:50:00,
2013-02-28 08:55:00,45.7,29.1,30.32,NE,39,4.6,4.6,52,0.00,CLR,,0.00,WeatherDisplay:10.37,2013-02-28 14:55:00,
2013-02-28 09:00:00,45.7,29.1,30.32,NNE,27,9.0,9.0,52,0.00,CLR,,0.00,WeatherDisplay:10.37,2013-02-28 15:00:00,
2013-02-28 09:05:00,45.8,29.2,30.32,NNW,345,6.0,6.0,52,0.00,CLR,,0.00,WeatherDisplay:10.37,2013-02-28 15:05:00,
2013-02-28 09:10:00,46.1,29.4,30.32,NNE,17,5.8,5.8,52,0.00,CLR,,0.00,WeatherDisplay:10.37,2013-02-28 15:10:00,
2013-02-28 09:15:00,46.3,29.6,30.33,North,350,9.2,9.2,52,0.00,CLR,,0.00,WeatherDisplay:10.37,2013-02-28 15:15:00,
2013-02-28 09:20:00,46.5,29.8,30.33,NNE,15,4.6,4.6,52,0.00,CLR,,0.00,WeatherDisplay:10.37,2013-02-28 15:20:00,
2013-02-28 09:25:00,46.7,29.5,30.33,NNE,15,8.1,8.1,51,0.00,CLR,,0.00,WeatherDisplay:10.37,2013-02-28 15:25:00,
2013-02-28 09:30:00,46.9,29.7,30.32,NE,38,4.6,4.6,51,0.00,CLR,,0.00,WeatherDisplay:10.37,2013-02-28 15:30:00,
2013-02-28 09:35:00,47.1,29.4,30.33,NNE,22,3.5,3.5,50,0.00,CLR,,0.00,WeatherDisplay:10.37,2013-02-28 15:35:00,
2013-02-28 09:40:00,47.2,30.0,30.33,NNE,32,4.6,4.6,51,0.00,CLR,,0.00,WeatherDisplay:10.37,2013-02-28 15:40:00,
2013-02-28 09:45:00,47.6,29.9,30.33,ENE,62,6.9,6.9,50,0.00,CLR,,0.00,WeatherDisplay:10.37,2013-02-28 15:45:00,
2013-02-28 09:50:00,47.9,30.1,30.33,NNE,24,4.6,4.6,50,0.00,CLR,,0.00,WeatherDisplay:10.37,2013-02-28 15:50:00,
2013-02-28 09:55:00,48.2,29.9,30.32,NNE,14,11.5,11.5,49,0.00,CLR,,0.00,WeatherDisplay:10.37,2013-02-28 15:55:00,
2013-02-28 10:00:00,48.3,30.0,30.32,NE,43,5.8,5.8,49,0.00,CLR,,0.00,WeatherDisplay:10.37,2013-02-28 16:00:00,
2013-02-28 10:05:00,48.6,30.3,30.32,North,9,5.8,5.8,49,0.00,CLR,,0.00,WeatherDisplay:10.37,2013-02-28 16:05:00,
2013-02-28 10:10:00,48.8,30.0,30.32,NE,36,4.6,4.6,48,0.00,CLR,,0.00,WeatherDisplay:10.37,2013-02-28 16:10:00,
2013-02-28 10:15:00,49.1,29.7,30.32,North,9,8.1,8.1,47,0.00,CLR,,0.00,WeatherDisplay:10.37,2013-02-28 16:15:00,
2013-02-28 10:20:00,49.3,29.9,30.32,NNE,19,8.1,8.1,47,0.00,CLR,,0.00,WeatherDisplay:10.37,2013-02-28 16:20:00,
2013-02-28 10:25:00,49.7,29.7,30.32,NNW,327,9.2,9.2,46,0.00,CLR,,0.00,WeatherDisplay:10.37,2013-02-28 16:25:00,
2013-02-28 10:30:00,50.1,30.1,30.31,North,11,5.8,5.8,46,0.00,CLR,,0.00,WeatherDisplay:10.37,2013-02-28 16:30:00,
2013-02-28 10:35:00,50.8,30.7,30.32,NE,51,6.0,6.0,46,0.00,CLR,,0.00,WeatherDisplay:10.37,2013-02-28 16:35:00,
2013-02-28 10:40:00,51.4,30.7,30.32,NNE,31,5.8,5.8,45,0.00,CLR,,0.00,WeatherDisplay:10.37,2013-02-28 16:40:00,
2013-02-28 10:45:00,51.9,30.1,30.32,NNE,26,6.9,6.9,43,0.00,CLR,,0.00,WeatherDisplay:10.37,2013-02-28 16:45:00,
2013-02-28 10:50:00,52.1,30.3,30.31,North,355,9.2,9.2,43,0.00,CLR,,0.00,WeatherDisplay:10.37,2013-02-28 16:50:00,
2013-02-28 10:55:00,52.2,30.4,30.31,NNE,15,4.0,4.0,43,0.00,CLR,,0.00,WeatherDisplay:10.37,2013-02-28 16:55:00,
2013-02-28 11:00:00,52.5,30.6,30.31,WNW,298,6.9,6.9,43,0.00,CLR,,0.00,WeatherDisplay:10.37,2013-02-28 17:00:00,
2013-02-28 11:05:00,52.8,30.3,30.31,NNE,13,8.1,8.1,42,0.00,CLR,,0.00,WeatherDisplay:10.37,2013-02-28 17:05:00,
2013-02-28 11:10:00,53.0,30.5,30.31,NNE,18,11.5,11.5,42,0.00,CLR,,0.00,WeatherDisplay:10.37,2013-02-28 17:10:00,
2013-02-28 11:15:00,53.1,30.6,30.30,NNE,22,3.5,3.5,42,0.00,CLR,,0.00,WeatherDisplay:10.37,2013-02-28 17:15:00,
2013-02-28 11:20:00,53.2,30.1,30.31,NW,315,9.2,9.2,41,0.00,CLR,,0.00,WeatherDisplay:10.37,2013-02-28 17:20:00,
2013-02-28 11:25:00,53.2,30.1,30.31,North,349,6.9,6.9,41,0.00,CLR,,0.00,WeatherDisplay:10.37,2013-02-28 17:25:00,
2013-02-28 11:30:00,53.3,29.6,30.30,NNE,15,6.9,6.9,40,0.00,CLR,,0.00,WeatherDisplay:10.37,2013-02-28 17:30:00,
2013-02-28 11:35:00,53.5,30.4,30.30,ENE,78,3.5,3.5,41,0.00,CLR,,0.00,WeatherDisplay:10.37,2013-02-28 17:35:00,
2013-02-28 11:40:00,53.6,29.8,30.30,NNW,342,9.2,9.2,40,0.00,CLR,,0.00,WeatherDisplay:10.37,2013-02-28 17:40:00,
2013-02-28 11:45:00,53.8,30.0,30.30,NNW,342,10.4,10.4,40,0.00,CLR,,0.00,WeatherDisplay:10.37,2013-02-28 17:45:00,
2013-02-28 11:50:00,53.9,29.5,30.30,NNW,342,9.2,9.2,39,0.00,CLR,,0.00,WeatherDisplay:10.37,2013-02-28 17:50:00,
2013-02-28 11:55:00,53.9,28.8,30.30,NNW,333,9.2,9.2,38,0.00,CLR,,0.00,WeatherDisplay:10.37,2013-02-28 17:55:00,
2013-02-28 12:00:00,54.1,30.3,30.29,NNE,12,8.1,8.1,40,0.00,CLR,,0.00,WeatherDisplay:10.37,2013-02-28 18:00:00,
2013-02-28 12:05:00,54.5,29.4,30.29,NW,319,4.6,4.6,38,0.00,CLR,,0.00,WeatherDisplay:10.37,2013-02-28 18:05:00,
2013-02-28 12:10:00,55.0,29.2,30.28,WNW,299,4.6,4.6,37,0.00,CLR,,0.00,WeatherDisplay:10.37,2013-02-28 18:10:00,
2013-02-28 12:15:00,55.3,29.4,30.28,ENE,65,10.4,10.4,37,0.00,CLR,,0.00,WeatherDisplay:10.37,2013-02-28 18:15:00,
2013-02-28 12:20:00,55.7,29.8,30.28,North,9,11.5,11.5,37,0.00,CLR,,0.00,WeatherDisplay:10.37,2013-02-28 18:20:00,
2013-02-28 12:25:00,56.2,29.6,30.27,North,355,5.8,5.8,36,0.00,CLR,,0.00,WeatherDisplay:10.37,2013-02-28 18:25:00,
2013-02-28 12:30:00,56.6,29.2,30.27,NNW,331,8.1,8.1,35,0.00,CLR,,0.00,WeatherDisplay:10.37,2013-02-28 18:30:00,
2013-02-28 12:35:00,56.9,30.2,30.26,NE,43,8.1,8.1,36,0.00,CLR,,0.00,WeatherDisplay:10.37,2013-02-28 18:35:00,
2013-02-28 12:40:00,57.2,30.5,30.26,North,355,5.8,5.8,36,0.00,CLR,,0.00,WeatherDisplay:10.37,2013-02-28 18:40:00,
2013-02-28 12:45:00,57.5,29.3,30.26,NW,315,6.9,6.9,34,0.00,CLR,,0.00,WeatherDisplay:10.37,2013-02-28 18:45:00,
2013-02-28 12:50:00,58.1,29.8,30.25,WNW,298,4.6,4.6,34,0.00,CLR,,0.00,WeatherDisplay:10.37,2013-02-28 18:50:00,
2013-02-28 12:55:00,58.5,29.5,30.25,NNW,328,5.8,5.8,33,0.00,CLR,,0.00,WeatherDisplay:10.37,2013-02-28 18:55:00,
2013-02-28 13:00:00,58.5,28.7,30.25,NNW,344,11.5,11.5,32,0.00,CLR,,0.00,WeatherDisplay:10.37,2013-02-28 19:00:00,
2013-02-28 13:05:00,58.4,27.9,30.24,NNW,346,10.4,10.4,31,0.00,CLR,,0.00,WeatherDisplay:10.37,2013-02-28 19:05:00,
2013-02-28 13:10:00,58.5,28.7,30.24,NNE,17,5.8,5.8,32,0.00,CLR,,0.00,WeatherDisplay:10.37,2013-02-28 19:10:00,
2013-02-28 13:15:00,58.8,29.0,30.23,NNW,339,5.8,5.8,32,0.00,CLR,,0.00,WeatherDisplay:10.37,2013-02-28 19:15:00,
2013-02-28 13:20:00,58.9,28.3,30.23,NE,40,9.2,9.2,31,0.00,CLR,,0.00,WeatherDisplay:10.37,2013-02-28 19:20:00,
2013-02-28 13:25:00,59.3,28.6,30.22,NW,324,2.3,2.3,31,0.00,CLR,,0.00,WeatherDisplay:10.37,2013-02-28 19:25:00,
2013-02-28 13:30:00,59.7,28.2,30.22,WNW,297,4.6,4.6,30,0.00,CLR,,0.00,WeatherDisplay:10.37,2013-02-28 19:30:00,
2013-02-28 13:35:00,59.9,28.4,30.22,WNW,301,6.9,6.9,30,0.00,CLR,,0.00,WeatherDisplay:10.37,2013-02-28 19:35:00,
2013-02-28 13:41:00,59.9,29.2,30.22,North,355,3.5,3.5,31,0.00,CLR,,0.00,WeatherDisplay:10.37,2013-02-28 19:41:00,
2013-02-28 13:46:00,60.2,29.4,30.21,NE,36,4.6,4.6,31,0.00,CLR,,0.00,WeatherDisplay:10.37,2013-02-28 19:46:00,
2013-02-28 13:51:00,60.0,28.4,30.21,North,350,6.9,6.9,30,0.00,CLR,,0.00,WeatherDisplay:10.37,2013-02-28 19:51:00,
2013-02-28 13:56:00,59.9,28.4,30.21,NW,323,6.9,6.9,30,0.00,CLR,,0.00,WeatherDisplay:10.37,2013-02-28 19:56:00,
2013-02-28 14:01:00,60.3,28.7,30.22,WSW,242,3.5,3.5,30,0.00,CLR,,0.00,WeatherDisplay:10.37,2013-02-28 20:01:00,
2013-02-28 14:06:00,60.4,28.0,30.22,NNE,17,11.5,11.5,29,0.00,CLR,,0.00,WeatherDisplay:10.37,2013-02-28 20:06:00,
2013-02-28 14:11:00,60.2,28.6,30.21,West,277,3.5,3.5,30,0.00,CLR,,0.00,WeatherDisplay:10.37,2013-02-28 20:11:00,
2013-02-28 14:16:00,59.9,28.4,30.21,ENE,73,4.6,4.6,30,0.00,CLR,,0.00,WeatherDisplay:10.37,2013-02-28 20:16:00,
2013-02-28 14:21:00,59.6,28.1,30.21,WNW,294,8.1,8.1,30,0.00,CLR,,0.00,WeatherDisplay:10.37,2013-02-28 20:21:00,
2013-02-28 14:26:00,59.3,28.6,30.21,NNW,328,3.5,3.5,31,0.00,CLR,,0.00,WeatherDisplay:10.37,2013-02-28 20:26:00,
2013-02-28 14:31:00,59.5,28.8,30.21,NNW,336,5.0,5.0,31,0.00,CLR,,0.00,WeatherDisplay:10.37,2013-02-28 20:31:00,
2013-02-28 14:36:00,59.6,28.9,30.20,NNE,26,3.5,3.5,31,0.00,CLR,,0.00,WeatherDisplay:10.37,2013-02-28 20:36:00,
2013-02-28 14:41:00,59.7,29.8,30.20,NE,44,4.6,4.6,32,0.00,CLR,,0.00,WeatherDisplay:10.37,2013-02-28 20:41:00,
2013-02-28 14:46:00,59.6,29.7,30.20,ENE,69,3.5,3.5,32,0.00,CLR,,0.00,WeatherDisplay:10.37,2013-02-28 20:46:00,
2013-02-28 14:51:00,59.6,28.9,30.19,NE,38,9.2,9.2,31,0.00,CLR,,0.00,WeatherDisplay:10.37,2013-02-28 20:51:00,
2013-02-28 14:56:00,59.6,28.1,30.19,North,355,7.0,7.0,30,0.00,CLR,,0.00,WeatherDisplay:10.37,2013-02-28 20:56:00,
2013-02-28 15:01:00,59.6,28.9,30.20,NW,315,3.5,3.5,31,0.00,CLR,,0.00,WeatherDisplay:10.37,2013-02-28 21:01:00,
2013-02-28 15:06:00,59.8,27.4,30.20,NNW,338,9.2,9.2,29,0.00,CLR,,0.00,WeatherDisplay:10.37,2013-02-28 21:06:00,
2013-02-28 15:11:00,59.8,27.4,30.19,NW,325,6.9,6.9,29,0.00,CLR,,0.00,WeatherDisplay:10.37,2013-02-28 21:11:00,
2013-02-28 15:16:00,60.2,27.8,30.19,WNW,286,5.8,5.8,29,0.00,CLR,,0.00,WeatherDisplay:10.37,2013-02-28 21:16:00,
2013-02-28 15:21:00,60.7,26.5,30.19,NNW,346,5.8,5.8,27,0.00,CLR,,0.00,WeatherDisplay:10.37,2013-02-28 21:21:00,
2013-02-28 15:26:00,61.0,27.6,30.19,ENE,59,9.0,9.0,28,0.00,CLR,,0.00,WeatherDisplay:10.37,2013-02-28 21:26:00,
2013-02-28 15:31:00,61.1,27.7,30.19,NNW,345,1.1,1.1,28,0.00,CLR,,0.00,WeatherDisplay:10.37,2013-02-28 21:31:00,
2013-02-28 15:36:00,61.2,26.0,30.19,NW,311,8.1,8.1,26,0.00,CLR,,0.00,WeatherDisplay:10.37,2013-02-28 21:36:00,
2013-02-28 15:41:00,61.1,26.8,30.19,NNE,17,3.5,3.5,27,0.00,CLR,,0.00,WeatherDisplay:10.37,2013-02-28 21:41:00,
2013-02-28 15:46:00,61.1,27.7,30.19,NNW,327,4.6,4.6,28,0.00,CLR,,0.00,WeatherDisplay:10.37,2013-02-28 21:46:00,
2013-02-28 15:51:00,61.3,27.0,30.19,WNW,302,5.8,5.8,27,0.00,CLR,,0.00,WeatherDisplay:10.37,2013-02-28 21:51:00,
2013-02-28 15:56:00,61.3,26.1,30.19,NNE,22,8.1,8.1,26,0.00,CLR,,0.00,WeatherDisplay:10.37,2013-02-28 21:56:00,
2013-02-28 16:01:00,61.4,27.1,30.19,ENE,64,4.6,4.6,27,0.00,CLR,,0.00,WeatherDisplay:10.37,2013-02-28 22:01:00,
2013-02-28 16:06:00,61.5,26.3,30.19,North,10,5.8,5.8,26,0.00,CLR,,0.00,WeatherDisplay:10.37,2013-02-28 22:06:00,
2013-02-28 16:11:00,61.4,26.2,30.19,NW,307,3.5,3.5,26,0.00,CLR,,0.00,WeatherDisplay:10.37,2013-02-28 22:11:00,
2013-02-28 16:16:00,61.3,27.0,30.19,NNW,345,6.9,6.9,27,0.00,CLR,,0.00,WeatherDisplay:10.37,2013-02-28 22:16:00,
2013-02-28 16:21:00,61.1,25.9,30.19,NNE,18,8.1,8.1,26,0.00,CLR,,0.00,WeatherDisplay:10.37,2013-02-28 22:21:00,
2013-02-28 16:26:00,60.8,26.6,30.18,NE,39,5.0,5.0,27,0.00,CLR,,0.00,WeatherDisplay:10.37,2013-02-28 22:26:00,
2013-02-28 16:31:00,60.7,26.5,30.18,WNW,283,6.9,6.9,27,0.00,CLR,,0.00,WeatherDisplay:10.37,2013-02-28 22:31:00,
2013-02-28 16:36:00,60.6,26.4,30.18,North,5,5.0,5.0,27,0.00,CLR,,0.00,WeatherDisplay:10.37,2013-02-28 22:36:00,
2013-02-28 16:41:00,60.4,26.2,30.18,NNE,25,4.0,4.0,27,0.00,CLR,,0.00,WeatherDisplay:10.37,2013-02-28 22:41:00,
2013-02-28 16:46:00,60.3,26.1,30.18,NW,317,3.5,3.5,27,0.00,CLR,,0.00,WeatherDisplay:10.37,2013-02-28 22:46:00,
2013-02-28 16:51:00,60.2,26.1,30.18,NE,49,4.6,4.6,27,0.00,CLR,,0.00,WeatherDisplay:10.37,2013-02-28 22:51:00,
2013-02-28 16:56:00,60.1,26.0,30.18,WNW,295,6.0,6.0,27,0.00,CLR,,0.00,WeatherDisplay:10.37,2013-02-28 22:56:00,
2013-02-28 17:01:00,60.0,25.0,30.18,NNE,12,4.6,4.6,26,0.00,CLR,,0.00,WeatherDisplay:10.37,2013-02-28 23:01:00,
2013-02-28 17:06:00,59.9,25.8,30.19,NNW,348,2.3,2.3,27,0.00,CLR,,0.00,WeatherDisplay:10.37,2013-02-28 23:06:00,
2013-02-28 17:11:00,59.8,25.7,30.18,North,11,2.3,2.3,27,0.00,CLR,,0.00,WeatherDisplay:10.37,2013-02-28 23:11:00,
2013-02-28 17:16:00,59.7,25.6,30.18,North,5,3.5,3.5,27,0.00,CLR,,0.00,WeatherDisplay:10.37,2013-02-28 23:16:00,
2013-02-28 17:21:00,59.7,25.6,30.19,North,360,4.6,4.6,27,0.00,CLR,,0.00,WeatherDisplay:10.37,2013-02-28 23:21:00,
2013-02-28 17:26:00,59.6,24.6,30.19,WNW,288,1.1,1.1,26,0.00,CLR,,0.00,WeatherDisplay:10.37,2013-02-28 23:26:00,
2013-02-28 17:31:00,59.6,25.5,30.19,NW,311,5.8,5.8,27,0.00,CLR,,0.00,WeatherDisplay:10.37,2013-02-28 23:31:00,
2013-02-28 17:36:00,59.5,25.5,30.19,North,9,2.3,2.3,27,0.00,CLR,,0.00,WeatherDisplay:10.37,2013-02-28 23:36:00,
2013-02-28 17:41:00,59.4,25.4,30.19,NNW,342,4.6,4.6,27,0.00,CLR,,0.00,WeatherDisplay:10.37,2013-02-28 23:41:00,
2013-02-28 17:46:00,59.2,25.2,30.19,NNE,17,2.3,2.3,27,0.00,CLR,,0.00,WeatherDisplay:10.37,2013-02-28 23:46:00,
2013-02-28 17:51:00,59.1,26.0,30.20,North,9,3.5,3.5,28,0.00,CLR,,0.00,WeatherDisplay:10.37,2013-02-28 23:51:00,
2013-02-28 17:56:00,58.9,25.8,30.20,NNE,32,2.3,2.3,28,0.00,CLR,,0.00,WeatherDisplay:10.37,2013-02-28 23:56:00,
2013-02-28 18:01:00,58.7,25.6,30.20,WNW,282,3.5,3.5,28,0.00,CLR,,0.00,WeatherDisplay:10.37,2013-03-01 00:01:00,
2013-02-28 18:06:00,58.5,25.5,30.20,North,360,2.3,2.3,28,0.00,CLR,,0.00,WeatherDisplay:10.37,2013-03-01 00:06:00,
2013-02-28 18:11:00,58.2,25.2,30.20,North,360,0.0,0.0,28,0.00,CLR,,0.00,WeatherDisplay:10.37,2013-03-01 00:11:00,
2013-02-28 18:16:00,58.1,25.1,30.20,NW,315,0.0,0.0,28,0.00,CLR,,0.00,WeatherDisplay:10.37,2013-03-01 00:16:00,
2013-02-28 18:21:00,57.8,25.7,30.20,North,11,3.5,3.5,29,0.00,CLR,,0.00,WeatherDisplay:10.37,2013-03-01 00:21:00,
2013-02-28 18:26:00,57.5,25.5,30.20,North,5,1.1,1.1,29,0.00,CLR,,0.00,WeatherDisplay:10.37,2013-03-01 00:26:00,
2013-02-28 18:31:00,57.3,25.3,30.20,North,5,0.0,0.0,29,0.00,CLR,,0.00,WeatherDisplay:10.37,2013-03-01 00:31:00,
2013-02-28 18:36:00,56.9,25.7,30.20,North,355,0.0,0.0,30,0.00,CLR,,0.00,WeatherDisplay:10.37,2013-03-01 00:36:00,
2013-02-28 18:41:00,56.6,25.5,30.20,North,360,0.0,0.0,30,0.00,CLR,,0.00,WeatherDisplay:10.37,2013-03-01 00:41:00,
2013-02-28 18:46:00,56.2,25.9,30.20,North,360,0.0,0.0,31,0.00,CLR,,0.00,WeatherDisplay:10.37,2013-03-01 00:46:00,
2013-02-28 18:51:00,55.7,25.5,30.20,North,360,0.0,0.0,31,0.00,CLR,,0.00,WeatherDisplay:10.37,2013-03-01 00:51:00,
2013-02-28 18:56:00,55.3,25.1,30.20,North,360,0.0,0.0,31,0.00,CLR,,0.00,WeatherDisplay:10.37,2013-03-01 00:56:00,
2013-02-28 19:01:00,54.7,25.4,30.20,North,360,0.0,0.0,32,0.00,CLR,,0.00,WeatherDisplay:10.37,2013-03-01 01:01:00,
2013-02-28 19:06:00,54.2,24.9,30.20,North,360,0.0,0.0,32,0.00,CLR,,0.00,WeatherDisplay:10.37,2013-03-01 01:06:00,
2013-02-28 19:11:00,53.6,25.2,30.21,North,360,0.0,0.0,33,0.00,CLR,,0.00,WeatherDisplay:10.37,2013-03-01 01:11:00,
2013-02-28 19:16:00,52.9,24.5,30.21,North,360,0.0,0.0,33,0.00,CLR,,0.00,WeatherDisplay:10.37,2013-03-01 01:16:00,
2013-02-28 19:21:00,52.3,24.7,30.21,North,360,0.0,0.0,34,0.00,CLR,,0.00,WeatherDisplay:10.37,2013-03-01 01:21:00,
2013-02-28 19:26:00,51.7,24.2,30.21,North,360,0.0,0.0,34,0.00,CLR,,0.00,WeatherDisplay:10.37,2013-03-01 01:26:00,
2013-02-28 19:31:00,51.2,24.5,30.21,North,360,0.0,0.0,35,0.00,CLR,,0.00,WeatherDisplay:10.37,2013-03-01 01:31:00,
2013-02-28 19:36:00,50.6,24.6,30.22,North,360,0.0,0.0,36,0.00,CLR,,0.00,WeatherDisplay:10.37,2013-03-01 01:36:00,
2013-02-28 19:41:00,50.2,24.9,30.22,North,360,0.0,0.0,37,0.00,CLR,,0.00,WeatherDisplay:10.37,2013-03-01 01:41:00,
2013-02-28 19:46:00,49.7,24.5,30.22,North,360,0.0,0.0,37,0.00,CLR,,0.00,WeatherDisplay:10.37,2013-03-01 01:46:00,
2013-02-28 19:51:00,49.4,24.8,30.22,North,360,0.0,0.0,38,0.00,CLR,,0.00,WeatherDisplay:10.37,2013-03-01 01:51:00,
2013-02-28 19:56:00,49.0,25.1,30.22,North,360,0.0,0.0,39,0.00,CLR,,0.00,WeatherDisplay:10.37,2013-03-01 01:56:00,
2013-02-28 20:01:00,48.7,25.4,30.23,North,360,0.0,0.0,40,0.00,CLR,,0.00,WeatherDisplay:10.37,2013-03-01 02:01:00,
2013-02-28 20:06:00,48.4,25.2,30.23,North,360,0.0,0.0,40,0.00,CLR,,0.00,WeatherDisplay:10.37,2013-03-01 02:06:00,
2013-02-28 20:11:00,47.9,25.9,30.23,ENE,67,0.0,0.0,42,0.00,CLR,,0.00,WeatherDisplay:10.37,2013-03-01 02:11:00,
2013-02-28 20:16:00,47.6,25.6,30.23,ENE,67,0.0,0.0,42,0.00,CLR,,0.00,WeatherDisplay:10.37,2013-03-01 02:16:00,
2013-02-28 20:21:00,47.2,25.3,30.23,ENE,67,0.0,0.0,42,0.00,CLR,,0.00,WeatherDisplay:10.37,2013-03-01 02:21:00,
2013-02-28 20:26:00,46.8,24.9,30.23,ENE,67,0.0,0.0,42,0.00,CLR,,0.00,WeatherDisplay:10.37,2013-03-01 02:26:00,
2013-02-28 20:31:00,46.5,25.2,30.23,ENE,67,0.0,0.0,43,0.00,CLR,,0.00,WeatherDisplay:10.37,2013-03-01 02:31:00,
2013-02-28 20:36:00,46.1,24.8,30.23,ENE,67,0.0,0.0,43,0.00,CLR,,0.00,WeatherDisplay:10.37,2013-03-01 02:36:00,
2013-02-28 20:41:00,45.8,24.5,30.23,ENE,67,0.0,0.0,43,0.00,CLR,,0.00,WeatherDisplay:10.37,2013-03-01 02:41:00,
2013-02-28 20:46:00,45.5,24.8,30.23,ENE,67,0.0,0.0,44,0.00,CLR,,0.00,WeatherDisplay:10.37,2013-03-01 02:46:00,
2013-02-28 20:51:00,45.2,24.6,30.23,ENE,67,0.0,0.0,44,0.00,CLR,,0.00,WeatherDisplay:10.37,2013-03-01 02:51:00,
2013-02-28 20:56:00,45.0,24.4,30.24,ENE,67,0.0,0.0,44,0.00,CLR,,0.00,WeatherDisplay:10.37,2013-03-01 02:56:00,
2013-02-28 21:01:00,44.7,24.1,30.24,ENE,67,0.0,0.0,44,0.00,CLR,,0.00,WeatherDisplay:10.37,2013-03-01 03:01:00,
2013-02-28 21:06:00,44.5,24.5,30.24,ENE,67,0.0,0.0,45,0.00,CLR,,0.00,WeatherDisplay:10.37,2013-03-01 03:06:00,
2013-02-28 21:11:00,44.3,24.3,30.24,ENE,67,0.0,0.0,45,0.00,CLR,,0.00,WeatherDisplay:10.37,2013-03-01 03:11:00,
2013-02-28 21:16:00,44.0,24.0,30.24,ENE,67,0.0,0.0,45,0.00,CLR,,0.00,WeatherDisplay:10.37,2013-03-01 03:16:00,
2013-02-28 21:21:00,43.9,24.4,30.24,ENE,67,0.0,0.0,46,0.00,CLR,,0.00,WeatherDisplay:10.37,2013-03-01 03:21:00,
2013-02-28 21:26:00,43.8,24.3,30.24,ENE,67,0.0,0.0,46,0.00,CLR,,0.00,WeatherDisplay:10.37,2013-03-01 03:26:00,
2013-02-28 21:31:00,43.7,24.2,30.24,ENE,67,0.0,0.0,46,0.00,CLR,,0.00,WeatherDisplay:10.37,2013-03-01 03:31:00,
2013-02-28 21:36:00,43.6,24.2,30.25,ENE,67,0.0,0.0,46,0.00,CLR,,0.00,WeatherDisplay:10.37,2013-03-01 03:36:00,
2013-02-28 21:41:00,43.4,24.5,30.25,ENE,67,0.0,0.0,47,0.00,CLR,,0.00,WeatherDisplay:10.37,2013-03-01 03:41:00,
2013-02-28 21:46:00,43.3,24.4,30.24,ENE,67,0.0,0.0,47,0.00,CLR,,0.00,WeatherDisplay:10.37,2013-03-01 03:46:00,
2013-02-28 21:51:00,43.2,24.8,30.24,ENE,67,0.0,0.0,48,0.00,CLR,,0.00,WeatherDisplay:10.37,2013-03-01 03:51:00,
2013-02-28 21:56:00,43.1,24.7,30.24,ENE,67,0.0,0.0,48,0.00,CLR,,0.00,WeatherDisplay:10.37,2013-03-01 03:56:00,
2013-02-28 22:01:00,43.0,24.6,30.24,ENE,67,0.0,0.0,48,0.00,CLR,,0.00,WeatherDisplay:10.37,2013-03-01 04:01:00,
2013-02-28 22:06:00,42.9,24.5,30.25,ENE,67,0.0,0.0,48,0.00,CLR,,0.00,WeatherDisplay:10.37,2013-03-01 04:06:00,
2013-02-28 22:11:00,42.8,24.4,30.24,ENE,67,0.0,0.0,48,0.00,CLR,,0.00,WeatherDisplay:10.37,2013-03-01 04:11:00,
2013-02-28 22:16:00,42.7,24.8,30.24,ENE,67,0.0,0.0,49,0.00,CLR,,0.00,WeatherDisplay:10.37,2013-03-01 04:16:00,
2013-02-28 22:21:00,42.6,25.2,30.24,ENE,67,0.0,0.0,50,0.00,CLR,,0.00,WeatherDisplay:10.37,2013-03-01 04:21:00,
2013-02-28 22:26:00,42.5,24.7,30.24,ENE,67,0.0,0.0,49,0.00,CLR,,0.00,WeatherDisplay:10.37,2013-03-01 04:26:00,
2013-02-28 22:31:00,42.4,25.1,30.24,ENE,67,0.0,0.0,50,0.00,CLR,,0.00,WeatherDisplay:10.37,2013-03-01 04:31:00,
2013-02-28 22:36:00,42.3,25.0,30.24,ENE,67,0.0,0.0,50,0.00,CLR,,0.00,WeatherDisplay:10.37,2013-03-01 04:36:00,
2013-02-28 22:41:00,42.2,24.9,30.24,ENE,67,0.0,0.0,50,0.00,CLR,,0.00,WeatherDisplay:10.37,2013-03-01 04:41:00,
2013-02-28 22:46:00,42.1,25.3,30.24,ENE,67,0.0,0.0,51,0.00,CLR,,0.00,WeatherDisplay:10.37,2013-03-01 04:46:00,
2013-02-28 22:51:00,42.0,25.2,30.25,ENE,67,0.0,0.0,51,0.00,CLR,,0.00,WeatherDisplay:10.37,2013-03-01 04:51:00,
2013-02-28 22:56:00,41.8,25.0,30.24,ENE,67,0.0,0.0,51,0.00,CLR,,0.00,WeatherDisplay:10.37,2013-03-01 04:56:00,
2013-02-28 23:00:00,41.8,25.0,30.24,ENE,67,0.0,0.0,51,0.00,CLR,,0.00,WeatherDisplay:10.37,2013-03-01 05:00:00,
2013-02-28 23:05:00,41.6,25.3,30.24,ENE,67,0.0,0.0,52,0.00,CLR,,0.00,WeatherDisplay:10.37,2013-03-01 05:05:00,
2013-02-28 23:06:00,41.6,24.8,30.24,ENE,67,0.0,0.0,51,0.00,CLR,,0.00,WeatherDisplay:10.37,2013-03-01 05:06:00,
2013-02-28 23:11:00,41.5,24.7,30.24,ENE,67,0.0,0.0,51,0.00,CLR,,0.00,WeatherDisplay:10.37,2013-03-01 05:11:00,
2013-02-28 23:16:00,41.5,25.2,30.24,ENE,67,0.0,0.0,52,0.00,CLR,,0.00,WeatherDisplay:10.37,2013-03-01 05:16:00,
2013-02-28 23:21:00,41.4,25.1,30.24,ENE,67,0.0,0.0,52,0.00,CLR,,0.00,WeatherDisplay:10.37,2013-03-01 05:21:00,
2013-02-28 23:26:00,41.3,25.0,30.24,ENE,67,0.0,0.0,52,0.00,CLR,,0.00,WeatherDisplay:10.37,2013-03-01 05:26:00,
2013-02-28 23:31:00,41.3,25.4,30.24,ENE,67,0.0,0.0,53,0.00,CLR,,0.00,WeatherDisplay:10.37,2013-03-01 05:31:00,
2013-02-28 23:36:00,41.3,25.4,30.24,ENE,67,0.0,0.0,53,0.00,CLR,,0.00,WeatherDisplay:10.37,2013-03-01 05:36:00,
2013-02-28 23:41:00,41.3,25.4,30.24,ENE,67,0.0,0.0,53,0.00,CLR,,0.00,WeatherDisplay:10.37,2013-03-01 05:41:00,
2013-02-28 23:46:00,41.4,25.5,30.24,ENE,67,0.0,0.0,53,0.00,CLR,,0.00,WeatherDisplay:10.37,2013-03-01 05:46:00,
2013-02-28 23:51:00,41.4,25.1,30.24,ENE,67,0.0,0.0,52,0.00,CLR,,0.00,WeatherDisplay:10.37,2013-03-01 05:51:00,
2013-02-28 23:56:00,41.4,25.1,30.24,ENE,67,0.0,0.0,52,0.00,CLR,,0.00,WeatherDisplay:10.37,2013-03-01 05:56:00,